Location: Franzen
(48.6167°N, 15.3833°E)
Time: 01:01:34
(UTC+00:00)

Cosmos 1655 Rocket - Pass Details

Date: 05 August 2021
Orbit: 969 x 1007 km, 82.9° (Epoch: 18 September)

Event Time Altitude Azimuth Distance (km) Brightness Sun altitude
Exits shadow 22:04:00 - 233° (SW) 3,408 6.6 -23.3°
Reaches altitude 10° 22:06:07 10° 244° (WSW) 2,778 6.3 -23.4°
Maximum altitude 22:11:07 24° 296° (WNW) 1,971 6.0 -23.6°
Drops below altitude 10° 22:16:10 10° 348° (NNW) 2,796 7.5 -23.8°
Sets 22:19:18 0° 2° (N) 3,749 8.4 -23.9°
